Weather History for Marianna, FL

Change the Weather History Date:

Tuesday, November 19, 2013

  Actual Average Record
Temperature  
Mean Temperature 57 °F 59 °F  
Max Temperature 67 °F 71 °F 78 °F (1998)
Min Temperature 46 °F 48 °F 28 °F (2008)
Degree Days  
Heating Degree Days 8    
Month to date heating degree days 98  
Since 1 July heating degree days 132  
Cooling Degree Days 0    
Month to date cooling degree days 18  
Year to date cooling degree days 2485  
Growing Degree Days 6 (Base 50)    
Moisture  
Dew Point 41 °F    
Average Humidity 62    
Maximum Humidity 86    
Minimum Humidity 37    
Precipitation  
Precipitation 0.00 in 0.16 in 0.53 in (2003)
Month to date precipitation 1.86 2.48  
Year to date precipitation 56.81 48.03  
Sea Level Pressure  
Sea Level Pressure 30.05 in    
Wind  
Wind Speed 7 mph (NNE)    
Max Wind Speed 16 mph    
Max Gust Speed 22 mph    
Visibility 10 miles    
Events      
T = Trace of Precipitation, MM = Missing Value Source: NWS Daily Summary

Daily Weather History Graph

Daily Weather History Graph

Search for Another Location

Airport:

Trip Planner

Search our weather history database for the weather conditions in past years. The results will help you decide how hot, cold, wet, or windy it might be!

Date:

Astronomy

Nov. 19, 2013 Rise Set
Actual Time 6:10 AM CST 4:41 PM CST
Civil Twilight 5:45 AM CST 5:06 PM CST
Nautical Twilight 5:15 AM CST 5:36 PM CST
Astronomical Twilight 4:46 AM CST 6:05 PM CST
Moon 6:32 PM CST (11/19) 7:48 AM CST (11/19)
Length of Visible Light 11h 21m
Length of Day
10h 30m
Waning Gibbous, 96% of the Moon is Illuminated
Nov 19
Waning Gibbous
Nov 25
Last Quarter
Dec 2
New
Dec 9
First Quarter
Dec 17
Full

Hourly Weather History & Observations

Time (CST) Temp. Dew Point Humidity Pressure Visibility Wind Dir Wind Speed Gust Speed Precip Events Conditions
12:53 AM 54.0 °F 39.9 °F 59% 30.02 in 10.0 mi North 3.5 mph - N/A   Clear
1:53 AM 51.1 °F 39.9 °F 66% 30.02 in 10.0 mi North 4.6 mph - N/A   Clear
2:53 AM 50.0 °F 39.9 °F 68% 30.03 in 10.0 mi North 3.5 mph - N/A   Clear
3:53 AM 48.0 °F 42.1 °F 80% 30.04 in 10.0 mi NNW 3.5 mph - N/A   Clear
4:53 AM 46.9 °F 39.0 °F 74% 30.04 in 10.0 mi North 4.6 mph - N/A   Clear
5:53 AM 46.9 °F 39.0 °F 74% 30.06 in 10.0 mi NNW 3.5 mph - N/A   Clear
6:53 AM 48.9 °F 39.9 °F 71% 30.07 in 10.0 mi North 3.5 mph - N/A   Clear
7:53 AM 53.1 °F 37.9 °F 57% 30.08 in 10.0 mi North 11.5 mph - N/A   Clear
8:53 AM 55.9 °F 37.9 °F 51% 30.09 in 10.0 mi NNE 13.8 mph - N/A   Clear
9:53 AM 60.1 °F 37.9 °F 44% 30.08 in 10.0 mi NE 13.8 mph - N/A   Clear
10:53 AM 63.0 °F 39.0 °F 41% 30.06 in 10.0 mi NE 11.5 mph 17.3 mph N/A   Clear
11:53 AM 64.0 °F 39.0 °F 40% 30.04 in 10.0 mi ENE 11.5 mph - N/A   Clear
12:53 PM 66.0 °F 39.9 °F 38% 30.01 in 10.0 mi NE 13.8 mph - N/A   Clear
1:53 PM 66.0 °F 41.0 °F 40% 30.00 in 10.0 mi ENE 8.1 mph - N/A   Clear
2:53 PM 66.0 °F 41.0 °F 40% 30.00 in 10.0 mi NE 11.5 mph - N/A   Clear
3:53 PM 64.0 °F 41.0 °F 43% 30.01 in 10.0 mi NNE 9.2 mph - N/A   Clear
4:53 PM 59.0 °F 43.0 °F 55% 30.04 in 10.0 mi Calm Calm - N/A   Clear
5:53 PM 55.0 °F 46.9 °F 74% 30.05 in 10.0 mi Calm Calm - N/A   Clear
6:53 PM 52.0 °F 46.0 °F 80% 30.06 in 10.0 mi Calm Calm - N/A   Clear
7:53 PM 50.0 °F 46.0 °F 86% 30.07 in 10.0 mi NNE 3.5 mph - N/A   Clear
8:53 PM 53.1 °F 42.1 °F 66% 30.08 in 10.0 mi ENE 5.8 mph - N/A   Clear
9:53 PM 51.1 °F 42.1 °F 71% 30.07 in 10.0 mi ENE 6.9 mph - N/A   Clear
10:53 PM 50.0 °F 41.0 °F 71% 30.06 in 10.0 mi ENE 3.5 mph - N/A   Clear
11:53 PM 50.0 °F 41.0 °F 71% 30.08 in 10.0 mi ENE 4.6 mph - N/A   Scattered Clouds